Nashville International Airport Nashville US
ICAO: KBNA
IATA: BNA
Category: Large
Scheduled Services: Yes

Elevation: 599 ft
TransAlt. 18000 ft.

Airport Communications:
APP:120.6
ATIS:135.1
CLNC DEL:126.05
DEP:118.4
GND:121.9
ANG MAINT:138.1
ANG OPS:32.29
RDO:122.2
TWR:118.6
UNICOM:122.95

KBNA Zoom In..

If you have problems with the map follow the link
https://www.worldairports.se/pages/airport.php?
ICAO=KBNA

Runways:

(A) RW 02C length 8001 ft width 150 ft
ILS 110.75 / hdg 21

(B) RW 02L length 7703 ft width 150 ft
ILS 109.90 / hdg 21

(C) RW 02R length 8000 ft width 150 ft
ILS 111.75 / hdg 21

(D) RW 13 length 11030 ft width 150 ft
---- / hdg 136

(E) RW 20C length 8001 ft width 150 ft
---- / hdg 201

(F) RW 20L length 8000 ft width 150 ft
ILS 109.35 / hdg 201

(G) RW 20R length 7703 ft width 150 ft
ILS 111.30 / hdg 201

(H) RW 31 length 11030 ft width 150 ft
ILS 111.95 / hdg 316

Location; KBNA
Day. 06 / Time. 01.53 Zulu
* Altimeter: 30.12
* Temperature: 12° c. 53.6°f.
* Wind from: 180° Speed 04 kn.
Dewpoint: -01° c.
Visibility: 10 Statute Miles.
Clouds: Broken 13000 ft.
Clouds: Broken 25000 ft.

KBNA 060153Z 18004KT 10SM BKN130 BKN250 12/M01 A3012 RMK AO2 SLP198 T01171006


Wind From 180°
Speed 04 kn.

 
 
jpsmedia worldairports.se 2019   terms of use